Main page
METAR-TAF:

METAR-TAF

Airports :

Marília Airport

Marília, São Paulo, Brazil

latitude: 22-11-44S, longitude: 049-55-37W, elevation: 647 m

Current weather observation

The report was made 13 hours and 37 minutes ago, at 18:00 UTC
Wind 9 kt from the North/Northeast
Temperature 28°C
Humidity 40%
Pressure 1014 hPa
Visibility 10 km or more
no clouds below 1500 m and no cumulonimbus

METAR: SBML 181800Z 02009KT CAVOK 28/13 Q1014

Time: 04:37 (07:37 UTC)


TAF: missing

Weather observations and forecasts of more than 4000 airports (METAR and TAF reports).

The available stations are represented by yellow and red dots on the map.

Hover mouse over dot to see the name of the station.

Then click to see weather observations and forecasts.

To change the map : click on the green buttons with a black cross to zoom in, on the green button with a dash to zoom out, or on the green arrows for adjacent maps.


METAR-TAF: